CW3224 Weather Reports


time (UTC)temp
F
wind
direction
speed
knots
gust
knots
rain 1hr
in
rain 24hr
in
rain mn
in
humidity
%
barometer
mb
20200531080846 57 89 0.0 0.0 0.00 0.00 0.00 78 1011.5
20200531075846 57 177 0.0 0.0 0.00 0.00 0.00 77 1011.5
20200531074843 57 181 0.0 0.0 0.00 0.01 0.00 77 1011.5
20200531073844 58 215 0.0 2.6 0.00 0.01 0.00 76 1011.4
20200531072843 58 161 0.0 2.6 0.00 0.01 0.00 76 1011.4
20200531071843 59 179 0.0 0.0 0.00 0.02 0.00 75 1011.3
20200531070839 59 179 0.0 0.9 0.00 0.10 0.00 74 1011.3
20200531065836 59 179 0.0 1.7 0.00 0.10 0.00 74 1011.3
20200531064835 60 255 0.0 4.3 0.00 0.10 0.00 73 1011.0
20200531063835 60 112 0.0 1.7 0.00 0.10 0.00 73 1010.9
20200531062834 60 159 0.0 1.7 0.00 0.10 0.00 73 1010.9
20200531061835 61 207 0.0 0.9 0.00 0.10 0.00 73 1011.1
20200531060834 61 237 0.0 2.6 0.00 0.10 0.00 73 1011.1
20200531055835 60 208 0.9 4.3 0.00 0.10 0.00 73 1011.1
20200531054829 60 282 0.0 2.6 0.00 0.10 0.00 74 1010.9
20200531053829 60 185 0.0 1.7 0.00 0.10 0.00 74 1010.9
20200531052830 60 10 0.9 2.6 0.00 0.10 0.00 74 1010.9
20200531051831 60 131 0.0 2.6 0.00 0.10 0.00 74 1010.9
20200531050821 60 230 0.9 5.2 0.00 0.10 0.00 73 1010.8
20200531045821 60 272 0.0 0.9 0.00 0.10 0.00 72 1010.8
20200531044823 61 166 0.0 0.0 0.00 0.10 0.00 71 1010.9
20200531043819 61 166 0.0 0.0 0.00 0.10 0.00 70 1010.8
20200531042817 62 166 0.0 0.0 0.00 0.10 0.00 70 1010.8
20200531041819 62 166 0.0 0.0 0.00 0.10 0.00 69 1010.8
20200531040811 62 166 0.0 0.0 0.00 0.10 0.00 68 1010.9
20200531035813 63 165 0.0 1.7 0.00 0.10 0.10 69 1010.9
20200531034804 63 178 0.9 3.5 0.00 0.10 0.10 68 1010.9
20200531033805 63 184 0.9 3.5 0.00 0.10 0.10 68 1010.7
20200531032802 63 84 0.9 4.3 0.00 0.10 0.10 68 1010.7
20200531031800 63 123 0.9 5.2 0.00 0.10 0.10 68 1010.7
20200531030801 63 35 1.7 5.2 0.00 0.10 0.10 68 1010.8
20200531025800 63 291 0.9 4.3 0.00 0.10 0.10 68 1010.8
20200531024801 63 257 1.7 7.0 0.00 0.10 0.10 69 1010.8
20200531023801 62 319 0.9 4.3 0.00 0.10 0.10 70 1010.5
20200531022800 62 195 0.9 5.2 0.00 0.10 0.10 73 1010.5
20200531021801 62 224 0.0 0.0 0.00 0.10 0.10 74 1009.9
20200531020802 63 175 0.0 0.0 0.00 0.10 0.10 71 1010.0
20200531015754 63 175 0.0 0.0 0.00 0.10 0.10 69 1010.0
20200531014753 64 175 0.0 0.0 0.00 0.10 0.10 69 1010.1
20200531013754 64 175 0.0 0.0 0.00 0.10 0.10 67 1010.2
20200531012752 65 175 0.0 0.0 0.00 0.10 0.10 66 1010.2
20200531011752 65 175 0.0 0.0 0.00 0.10 0.10 65 1010.0
20200531010753 67 175 0.0 0.0 0.00 0.10 0.10 63 1009.8
20200531005750 67 175 0.0 0.0 0.00 0.10 0.10 62 1009.8
20200531004751 68 175 0.0 0.0 0.00 0.10 0.10 61 1009.7
20200531003751 69 175 0.0 1.7 0.00 0.10 0.10 59 1009.4
20200531002752 70 175 0.0 0.0 0.00 0.10 0.10 55 1009.4
20200531001751 71 175 0.0 0.0 0.00 0.10 0.10 53 1009.4
20200531000747 71 175 0.0 0.0 0.00 0.10 0.10 53 1009.5
20200530235745 72 175 0.0 1.7 0.00 0.10 0.10 52 1009.5
20200530234744 73 173 0.0 1.7 0.00 0.10 0.10 51 1009.5
20200530233744 73 173 0.0 2.6 0.00 0.10 0.10 50 1009.3
20200530232745 73 286 0.0 2.6 0.00 0.10 0.10 52 1009.3
20200530231742 74 18 0.0 3.5 0.00 0.10 0.10 53 1009.3
20200530230743 74 207 0.0 2.6 0.00 0.10 0.10 51 1009.3
20200530225742 74 110 0.0 1.7 0.00 0.10 0.10 50 1009.3
20200530224742 75 148 0.0 1.7 0.00 0.10 0.10 53 1009.2
20200530223739 75 355 0.0 2.6 0.00 0.10 0.10 53 1009.0
20200530222740 75 85 0.9 2.6 0.00 0.10 0.10 49 1009.0
20200530221741 76 107 0.9 1.7 0.00 0.10 0.10 52 1009.0
20200530220736 76 147 0.9 3.5 0.00 0.10 0.10 49 1008.8
20200530215734 76 160 0.0 0.0 0.00 0.10 0.10 51 1008.8
20200530214732 76 162 0.9 3.5 0.00 0.10 0.10 48 1008.8
20200530213731 77 195 0.9 4.3 0.00 0.10 0.10 47 1008.8
20200530212731 77 114 1.7 4.3 0.00 0.10 0.10 48 1008.8
20200530211728 77 144 0.9 3.5 0.00 0.10 0.10 46 1008.8
20200530210726 77 89 0.9 5.2 0.00 0.10 0.10 49 1008.8
20200530205726 78 329 0.9 3.5 0.00 0.10 0.10 44 1008.8
20200530204727 78 130 0.9 3.5 0.00 0.10 0.10 46 1008.9
20200530203723 78 125 0.9 4.3 0.00 0.10 0.10 48 1008.8
20200530202724 77 90 0.9 4.3 0.00 0.10 0.10 48 1008.8
20200530201722 78 189 0.9 3.5 0.00 0.10 0.10 46 1008.8
20200530200722 78 89 0.9 4.3 0.00 0.10 0.10 48 1008.8
20200530195719 78 35 1.7 5.2 0.00 0.10 0.10 49 1008.8
20200530194715 78 27 0.9 6.1 0.00 0.10 0.10 47 1008.9
20200530193715 78 197 1.7 5.2 0.00 0.10 0.10 49 1008.8
20200530192711 78 127 1.7 7.8 0.00 0.10 0.10 48 1008.8
20200530191713 78 222 0.9 7.0 0.00 0.10 0.10 46 1008.8
20200530190711 78 190 1.7 6.1 0.00 0.10 0.10 47 1009.0
20200530185710 79 232 1.7 7.8 0.00 0.10 0.10 48 1009.0
20200530184708 79 254 1.7 5.2 0.00 0.10 0.10 49 1009.0
20200530183708 79 229 1.7 4.3 0.00 0.10 0.10 49 1009.0
20200530182709 78 74 1.7 8.7 0.00 0.10 0.10 47 1009.0
20200530181709 79 154 1.7 6.1 0.00 0.10 0.10 47 1009.1
20200530180708 78 220 2.6 7.0 0.00 0.10 0.10 46 1009.2
20200530175703 78 251 1.7 5.2 0.00 0.10 0.10 48 1009.2
20200530174703 77 202 1.7 6.1 0.00 0.10 0.10 48 1009.3
20200530173659 78 149 2.6 7.8 0.00 0.10 0.10 49 1009.4
20200530172700 77 58 0.9 3.5 0.00 0.10 0.10 52 1009.4
20200530171700 77 316 0.9 4.3 0.00 0.10 0.10 59 1009.5
20200530170700 79 186 0.9 3.5 0.00 0.10 0.10 50 1009.7
20200530165657 79 148 0.9 4.3 0.00 0.10 0.10 48 1009.7
20200530164655 79 296 2.6 6.1 0.00 0.10 0.10 52 1009.6
20200530163653 78 118 0.9 4.3 0.00 0.10 0.10 57 1009.8
20200530162655 78 8 1.7 7.0 0.00 0.10 0.10 54 1009.8
20200530161645 77 188 1.7 5.2 0.00 0.10 0.10 53 1010.0
20200530160642 76 243 1.7 6.1 0.00 0.10 0.10 54 1010.2
20200530155643 76 4 1.7 7.0 0.00 0.10 0.10 59 1010.2
20200530154642 75 219 1.7 5.2 0.00 0.10 0.10 58 1010.3
20200530153642 75 285 1.7 5.2 0.00 0.10 0.10 57 1010.3
20200530152639 75 74 0.9 7.8 0.00 0.10 0.10 58 1010.3
20200530151640 76 347 0.9 3.5 0.00 0.10 0.10 61 1010.3
20200530150640 76 296 0.9 7.0 0.00 0.10 0.10 60 1010.0
20200530145639 76 230 1.7 5.2 0.00 0.10 0.10 60 1010.0
20200530144640 76 178 1.7 7.0 0.00 0.10 0.10 62 1009.9
20200530143639 76 177 0.9 6.1 0.00 0.10 0.10 63 1009.9
20200530142640 75 81 0.9 7.0 0.00 0.10 0.10 63 1009.9
20200530141641 74 340 1.7 5.2 0.00 0.10 0.10 67 1009.8
20200530140639 73 258 0.9 5.2 0.00 0.10 0.10 68 1009.9
20200530135639 72 220 1.7 8.7 0.00 0.10 0.10 69 1009.9
20200530134639 71 281 1.7 7.0 0.00 0.10 0.10 74 1009.9
20200530133641 71 0 0.9 7.8 0.00 0.10 0.10 74 1010.2
20200530132635 70 289 1.7 7.8 0.00 0.10 0.10 73 1010.2
20200530131637 70 275 1.7 8.7 0.00 0.10 0.10 75 1010.1
20200530130637 69 246 0.9 4.3 0.00 0.10 0.10 80 1010.1
20200530125627 69 250 0.9 5.2 0.00 0.10 0.10 85 1010.1
20200530124624 68 134 0.9 5.2 0.00 0.10 0.10 89 1010.0
20200530123617 68 279 1.7 5.2 0.00 0.10 0.10 91 1009.9
20200530122614 68 171 0.9 5.2 0.00 0.10 0.10 92 1009.9
20200530121614 68 283 0.0 2.6 0.00 0.10 0.10 93 1009.7
20200530120610 68 207 0.9 5.2 0.00 0.10 0.10 93 1009.6
20200530115605 68 96 0.0 0.9 0.00 0.10 0.10 93 1009.6
20200530114601 68 204 0.0 1.7 0.00 0.10 0.10 93 1009.5
20200530113601 67 204 0.0 1.7 0.00 0.10 0.10 92 1009.4
20200530112603 67 214 0.9 3.5 0.00 0.10 0.10 93 1009.4
20200530111602 67 185 0.0 2.6 0.00 0.10 0.10 93 1009.2
20200530110601 67 185 0.0 2.6 0.00 0.10 0.10 93 1009.3
20200530105601 67 196 0.9 2.6 0.00 0.10 0.10 92 1009.3
20200530104602 67 168 0.0 1.7 0.00 0.10 0.10 92 1009.3
20200530103603 67 159 0.0 1.7 0.00 0.10 0.10 92 1009.2
20200530102602 67 199 0.0 1.7 0.00 0.10 0.10 92 1009.2
20200530101558 67 199 0.9 3.5 0.00 0.10 0.10 92 1009.3
20200530100557 67 206 0.9 2.6 0.00 0.10 0.10 92 1008.8
20200530095558 67 142 0.9 4.3 0.00 0.10 0.10 92 1008.8
20200530094556 67 229 0.9 1.7 0.00 0.10 0.10 92 1008.8
20200530093556 67 162 0.9 5.2 0.00 0.10 0.10 92 1008.9
20200530092553 67 188 0.9 2.6 0.00 0.10 0.10 92 1008.9
20200530090551 67 231 1.7 5.2 0.00 0.10 0.10 92 1008.3
20200530085551 67 233 1.7 4.3 0.00 0.10 0.10 92 1008.3
20200530084551 68 212 1.7 6.1 0.01 0.10 0.10 91 1008.3
20200530083552 68 209 1.7 4.3 0.01 0.10 0.10 91 1008.6
20200530082549 68 220 1.7 4.3 0.02 0.10 0.10 91 1008.6
20200530081550 68 215 1.7 3.5 0.02 0.10 0.10 91 1008.9